When you browse on this site, cookies collect data to enhance your experience and personalize the content and advertising you see.
Visit our Privacy Policy to learn more. By continuing to use the site, you agree to this use of cookies and data.
  • In United Kingdom
  • List of Countries
  • For 7 days
  • Water Temperature
  • Weather Map
  • Weather Widgets
  • user-avatar
    Login

    Hourly Weather Craiova

    Today, 20 September, Friday

    Time Temperature Precipitation Wind Pressure Humidity
    00:00 +13°C° 0 mm 4 mps 756 mmHg 43%
    01:00 +12°C° 0 mm 4 mps 756 mmHg 45%
    02:00 +11°C° 0 mm 4 mps 756 mmHg 47%
    03:00 +10°C° 0 mm 4 mps 756 mmHg 49%
    04:00 +10°C° 0 mm 4 mps 756 mmHg 51%
    05:00 +8°C° 0 mm 4 mps 756 mmHg 54%
    06:00 +10°C° 0 mm 4 mps 756 mmHg 50%
    07:00 +12°C° 0 mm 3 mps 757 mmHg 46%
    08:00 +13°C° 0 mm 3 mps 757 mmHg 42%
    09:00 +16°C° 0 mm 3 mps 757 mmHg 38%
    10:00 +18°C° 0 mm 2 mps 757 mmHg 34%
    11:00 +19°C° 0 mm 2 mps 757 mmHg 30%
    12:00 +20°C° 0 mm 2 mps 756 mmHg 27%
    13:00 +21°C° 0 mm 2 mps 756 mmHg 24%
    14:00 +23°C° 0 mm 2 mps 756 mmHg 21%
    15:00 +22°C° 0 mm 3 mps 756 mmHg 20%
    16:00 +22°C° 0 mm 3 mps 756 mmHg 18%
    17:00 +22°C° 0 mm 3 mps 756 mmHg 17%
    18:00 +19°C° 0 mm 3 mps 756 mmHg 22%
    19:00 +17°C° 0 mm 3 mps 757 mmHg 27%
    20:00 +13°C° 0 mm 3 mps 757 mmHg 32%
    21:00 +12°C° 0 mm 3 mps 757 mmHg 34%
    22:00 +11°C° 0 mm 3 mps 758 mmHg 36%
    23:00 +11°C° 0 mm 3 mps 758 mmHg 38%

    Tomorrow, 21 September, Saturday

    Time Temperature Precipitation Wind Pressure Humidity
    00:00 +10°C° 0 mm 3 mps 758 mmHg 39%
    01:00 +9°C° 0 mm 3 mps 758 mmHg 41%
    02:00 +9°C° 0 mm 3 mps 759 mmHg 42%
    03:00 +8°C° 0 mm 3 mps 759 mmHg 45%
    04:00 +8°C° 0 mm 3 mps 759 mmHg 48%
    05:00 +7°C° 0 mm 3 mps 759 mmHg 51%
    06:00 +9°C° 0 mm 3 mps 759 mmHg 49%
    07:00 +10°C° 0 mm 3 mps 759 mmHg 47%
    08:00 +11°C° 0 mm 3 mps 759 mmHg 46%
    09:00 +13°C° 0 mm 3 mps 759 mmHg 41%
    10:00 +16°C° 0 mm 3 mps 759 mmHg 36%
    11:00 +18°C° 0 mm 2 mps 759 mmHg 30%
    12:00 +20°C° 0 mm 2 mps 759 mmHg 27%
    13:00 +22°C° 0 mm 1 mps 758 mmHg 24%
    14:00 +21°C° 0 mm 0 mps 758 mmHg 20%
    15:00 +23°C° 0 mm 1 mps 758 mmHg 20%
    16:00 +23°C° 0 mm 1 mps 757 mmHg 20%
    17:00 +23°C° 0 mm 1 mps 757 mmHg 20%
    18:00 +20°C° 0 mm 1 mps 757 mmHg 24%
    19:00 +18°C° 0 mm 1 mps 757 mmHg 28%
    20:00 +15°C° 0 mm 1 mps 758 mmHg 32%
    21:00 +14°C° 0 mm 1 mps 758 mmHg 33%
    22:00 +13°C° 0 mm 1 mps 758 mmHg 35%
    23:00 +13°C° 0 mm 1 mps 758 mmHg 36%

    Day after tomorrow, 22 September, Sunday

    Time Temperature Precipitation Wind Pressure Humidity
    00:00 +12°C° 0 mm 1 mps 758 mmHg 38%
    01:00 +11°C° 0 mm 1 mps 757 mmHg 40%
    02:00 +11°C° 0 mm 1 mps 757 mmHg 41%
    03:00 +10°C° 0 mm 1 mps 757 mmHg 42%
    04:00 +9°C° 0 mm 2 mps 757 mmHg 44%
    05:00 +9°C° 0 mm 2 mps 757 mmHg 45%
    06:00 +10°C° 0 mm 2 mps 757 mmHg 42%
    07:00 +12°C° 0 mm 1 mps 757 mmHg 38%
    08:00 +14°C° 0 mm 1 mps 757 mmHg 35%
    09:00 +16°C° 0 mm 1 mps 756 mmHg 31%
    10:00 +19°C° 0 mm 2 mps 756 mmHg 26%
    11:00 +23°C° 0 mm 2 mps 756 mmHg 21%
    12:00 +24°C° 0 mm 2 mps 755 mmHg 20%
    13:00 +25°C° 0 mm 2 mps 755 mmHg 18%
    14:00 +26°C° 0 mm 2 mps 754 mmHg 16%
    15:00 +26°C° 0 mm 1 mps 754 mmHg 16%
    16:00 +26°C° 0 mm 1 mps 753 mmHg 16%
    17:00 +26°C° 0 mm 1 mps 753 mmHg 16%
    18:00 +24°C° 0 mm 1 mps 753 mmHg 19%
    19:00 +21°C° 0 mm 1 mps 753 mmHg 23%
    20:00 +17°C° 0 mm 2 mps 753 mmHg 26%
    21:00 +17°C° 0 mm 2 mps 753 mmHg 28%
    22:00 +16°C° 0 mm 1 mps 753 mmHg 29%
    23:00 +15°C° 0 mm 1 mps 753 mmHg 30%

    23 September, Monday

    Time Temperature Precipitation Wind Pressure Humidity
    00:00 +15°C° 0 mm 2 mps 753 mmHg 32%
    01:00 +14°C° 0 mm 2 mps 753 mmHg 33%
    02:00 +13°C° 0 mm 2 mps 753 mmHg 35%
    03:00 +13°C° 0 mm 2 mps 753 mmHg 37%
    04:00 +12°C° 0 mm 2 mps 753 mmHg 39%
    05:00 +12°C° 0 mm 2 mps 752 mmHg 41%
    06:00 +13°C° 0 mm 2 mps 752 mmHg 39%
    07:00 +14°C° 0 mm 2 mps 752 mmHg 36%
    08:00 +16°C° 0 mm 2 mps 751 mmHg 34%
    09:00 +18°C° 0 mm 2 mps 751 mmHg 31%
    10:00 +21°C° 0 mm 2 mps 751 mmHg 27%
    11:00 +24°C° 0 mm 2 mps 751 mmHg 24%
    12:00 +25°C° 0 mm 2 mps 750 mmHg 24%
    13:00 +25°C° 0 mm 2 mps 750 mmHg 23%
    14:00 +26°C° 0 mm 1 mps 749 mmHg 23%
    15:00 +26°C° 0 mm 1 mps 749 mmHg 23%
    16:00 +26°C° 0 mm 1 mps 749 mmHg 23%
    17:00 +25°C° 0 mm 1 mps 748 mmHg 24%
    18:00 +24°C° 0 mm 1 mps 748 mmHg 25%
    19:00 +23°C° 0 mm 1 mps 748 mmHg 27%
    20:00 +22°C° 0 mm 1 mps 748 mmHg 28%
    21:00 +22°C° 0 mm 1 mps 748 mmHg 30%
    22:00 +21°C° 0 mm 1 mps 748 mmHg 31%
    23:00 +18°C° 0 mm 0 mps 747 mmHg 33%

    24 September, Tuesday

    Time Temperature Precipitation Wind Pressure Humidity
    00:00 +20°C° 0 mm 1 mps 747 mmHg 34%
    01:00 +19°C° 0 mm 1 mps 747 mmHg 35%
    02:00 +19°C° 0 mm 1 mps 747 mmHg 37%
    03:00 +19°C° 0 mm 1 mps 746 mmHg 37%
    04:00 +19°C° 0 mm 1 mps 746 mmHg 38%
    05:00 +18°C° 0 mm 1 mps 746 mmHg 39%
    06:00 +17°C° 0.5 mm 2 mps 746 mmHg 48%
    07:00 +16°C° 0.5 mm 2 mps 746 mmHg 58%
    08:00 +15°C° 0.5 mm 2 mps 746 mmHg 68%
    09:00 +16°C° 0.3 mm 2 mps 746 mmHg 66%
    10:00 +17°C° 0.3 mm 2 mps 746 mmHg 65%
    11:00 +17°C° 0.3 mm 2 mps 746 mmHg 63%
    12:00 +18°C° 0.1 mm 2 mps 746 mmHg 63%
    13:00 +19°C° 0.1 mm 2 mps 746 mmHg 63%
    14:00 +20°C° 0.1 mm 3 mps 746 mmHg 63%
    15:00 +20°C° 0 mm 3 mps 746 mmHg 62%
    16:00 +20°C° 0 mm 3 mps 746 mmHg 62%
    17:00 +20°C° 0 mm 3 mps 746 mmHg 62%
    18:00 +19°C° 0 mm 2 mps 746 mmHg 70%
    19:00 +17°C° 0 mm 2 mps 747 mmHg 77%
    20:00 +16°C° 0 mm 1 mps 747 mmHg 84%
    21:00 +15°C° 0 mm 1 mps 747 mmHg 86%
    22:00 +15°C° 0 mm 2 mps 747 mmHg 87%
    23:00 +14°C° 0 mm 2 mps 748 mmHg 88%

    25 September, Wednesday

    Time Temperature Precipitation Wind Pressure Humidity
    00:00 +14°C° 0 mm 2 mps 748 mmHg 89%
    01:00 +14°C° 0 mm 2 mps 748 mmHg 90%
    02:00 +13°C° 0 mm 2 mps 748 mmHg 91%
    03:00 +13°C° 0 mm 2 mps 748 mmHg 92%
    04:00 +13°C° 0 mm 2 mps 748 mmHg 92%
    05:00 +13°C° 0 mm 2 mps 748 mmHg 93%
    06:00 +14°C° 0 mm 2 mps 748 mmHg 89%
    07:00 +15°C° 0 mm 2 mps 748 mmHg 85%
    08:00 +16°C° 0 mm 2 mps 749 mmHg 81%
    09:00 +18°C° 0 mm 2 mps 749 mmHg 74%
    10:00 +21°C° 0 mm 1 mps 749 mmHg 67%
    11:00 +22°C° 0 mm 1 mps 749 mmHg 59%
    12:00 +23°C° 0 mm 1 mps 749 mmHg 55%
    13:00 +25°C° 0 mm 1 mps 749 mmHg 51%
    14:00 +26°C° 0 mm 1 mps 749 mmHg 47%
    15:00 +26°C° 0 mm 1 mps 749 mmHg 47%
    16:00 +26°C° 0 mm 1 mps 748 mmHg 46%
    17:00 +26°C° 0 mm 1 mps 748 mmHg 45%
    18:00 +24°C° 0 mm 1 mps 749 mmHg 51%
    19:00 +23°C° 0 mm 2 mps 749 mmHg 56%
    20:00 +20°C° 0 mm 3 mps 749 mmHg 61%
    21:00 +20°C° 0 mm 3 mps 749 mmHg 64%
    22:00 +19°C° 0 mm 3 mps 750 mmHg 67%
    23:00 +18°C° 0 mm 3 mps 750 mmHg 70%
    Show more